FW2897 Weather Reports


Display with metric or nautical units.
time (UTC)temp
F
wind
direction
speed
MPH
gust
MPH
rain 1hr
in
rain 24hr
in
rain mn
in
humidity
%
barometer
mb
20260906110529 64 253 0.0 1.0 0.00 0.00 0.00 83 1013.5
20260906110016 64 235 0.0 1.0 0.00 0.00 0.00 84 1013.4
20260906105446 64 252 0.0 1.0 0.00 0.00 0.00 84 1013.3
20260906105217 64 257 0.0 3.0 0.00 0.00 0.00 84 1013.1
20260906104422 64 287 0.0 3.0 0.00 0.00 0.00 84 1013.0
20260906104340 63 283 0.0 1.0 0.00 0.00 0.00 85 1012.8
20260906104112 63 283 0.0 1.0 0.00 0.00 0.00 85 1012.9
20260906104103 64 299 0.0 1.0 0.00 0.00 0.00 85 1012.9
20260906102409 63 300 0.0 1.0 0.00 0.00 0.00 85 1012.7
20260906101838 63 285 0.0 0.0 0.00 0.00 0.00 85 1012.7
20260906101337 64 285 0.0 0.0 0.00 0.00 0.00 84 1012.6
20260906101037 64 285 0.0 1.0 0.00 0.00 0.00 84 1012.6
20260906100307 64 285 0.0 1.0 0.00 0.00 0.00 83 1012.6
20260906095805 64 285 0.0 1.0 0.00 0.00 0.00 84 1012.4
20260906095238 64 285 0.0 1.0 0.00 0.00 0.00 84 1012.5
20260906094952 64 330 0.0 1.0 0.00 0.00 0.00 84 1012.4
20260906094212 64 330 0.0 1.0 0.00 0.00 0.00 85 1012.4
20260906093641 64 330 0.0 1.0 0.00 0.00 0.00 84 1012.2
20260906093335 64 330 0.0 1.0 0.00 0.00 0.00 84 1012.3
20260906092611 64 330 0.0 1.0 0.00 0.00 0.00 84 1012.3
20260906092106 64 330 0.0 0.0 0.00 0.00 0.00 84 1012.1
20260906091539 64 330 0.0 0.0 0.00 0.00 0.00 83 1012.1
20260906091230 64 330 0.0 1.0 0.00 0.00 0.00 83 1012.0
20260906090510 65 330 0.0 1.0 0.00 0.00 0.00 83 1012.0
20260906085942 65 330 0.0 1.0 0.00 0.00 0.00 82 1011.9
20260906085440 65 330 0.0 3.0 0.00 0.00 0.00 82 1011.9
20260906084911 65 330 0.0 3.0 0.00 0.00 0.00 82 1011.8
20260906084408 65 283 0.0 1.0 0.00 0.00 0.00 82 1011.8
20260906083910 65 283 0.0 1.0 0.00 0.00 0.00 82 1011.8
20260906083344 65 283 0.0 1.0 0.00 0.00 0.00 82 1011.7
20260906082847 65 273 0.0 0.0 0.00 0.00 0.00 82 1011.7
20260906082548 65 255 0.0 0.0 0.00 0.00 0.00 82 1011.7
20260906082019 65 255 0.0 0.0 0.00 0.00 0.00 82 1011.6
20260906081259 65 255 0.0 0.0 0.00 0.00 0.00 82 1011.6
20260906080739 65 255 0.0 0.0 0.00 0.00 0.00 81 1011.5
20260906080235 65 255 0.0 0.0 0.00 0.00 0.00 81 1011.6
20260906080001 65 255 0.0 0.0 0.00 0.00 0.00 81 1011.6
20260906075221 66 255 0.0 0.0 0.00 0.00 0.00 80 1011.5
20260906074658 66 255 0.0 0.0 0.00 0.00 0.00 80 1011.5
20260906074401 66 328 0.0 2.0 0.00 0.00 0.00 80 1011.5
20260906073621 66 256 0.0 1.0 0.00 0.00 0.00 80 1011.5
20260906073123 66 255 0.0 1.0 0.00 0.00 0.00 79 1011.4
20260906072559 66 292 0.0 1.0 0.00 0.00 0.00 79 1011.4
20260906072039 66 311 0.0 1.0 0.00 0.00 0.00 79 1011.3
20260906071534 66 252 0.0 1.0 0.00 0.00 0.00 79 1011.3
20260906071021 66 250 0.0 1.0 0.00 0.00 0.00 78 1011.3
20260906070458 66 302 0.0 2.0 0.00 0.00 0.00 78 1011.4
20260906065932 66 302 0.0 2.0 0.00 0.00 0.00 79 1011.5
20260906065435 66 309 0.0 2.0 0.00 0.00 0.00 79 1011.3
20260906064910 66 295 0.0 1.0 0.00 0.00 0.00 79 1011.2
20260906064344 66 228 0.0 1.0 0.00 0.00 0.00 78 1011.4
20260906063817 67 334 0.0 1.0 0.00 0.00 0.00 78 1011.4
20260906063256 67 334 0.0 2.0 0.00 0.00 0.00 78 1011.6
20260906062757 67 286 0.0 2.0 0.00 0.00 0.00 78 1011.6
20260906062229 67 270 0.0 1.0 0.00 0.00 0.00 77 1011.6
20260906061705 67 297 0.0 4.0 0.00 0.00 0.00 77 1011.7
20260906061139 67 233 0.0 1.0 0.00 0.00 0.00 78 1011.7
20260906060609 67 306 0.0 1.0 0.00 0.00 0.00 77 1011.7
20260906060336 67 257 0.0 1.0 0.00 0.00 0.00 77 1011.7
20260906055604 67 274 0.0 2.0 0.00 0.00 0.00 77 1011.8
20260906055100 67 256 0.0 2.0 0.00 0.00 0.00 77 1011.7
20260906054819 67 307 0.0 1.0 0.00 0.00 0.00 77 1011.7
20260906054316 67 307 0.0 2.0 0.00 0.00 0.00 77 1011.7
20260906053526 67 302 0.0 2.0 0.00 0.00 0.00 77 1011.7
20260906053025 67 281 0.0 1.0 0.00 0.00 0.00 77 1011.8
20260906052500 67 296 0.0 1.0 0.00 0.00 0.00 77 1011.8
20260906051931 67 296 0.0 1.0 0.00 0.00 0.00 77 1011.8
20260906051430 67 280 0.0 1.0 0.00 0.00 0.00 77 1011.8
20260906051124 67 316 0.0 1.0 0.00 0.00 0.00 77 1011.8
20260906050359 67 300 0.0 2.0 0.00 0.00 0.00 76 1011.8
20260906045858 68 302 0.0 2.0 0.00 0.00 0.00 76 1011.9
20260906045330 68 272 0.0 2.0 0.00 0.00 0.00 76 1012.0
20260906044828 68 307 0.0 2.0 0.00 0.00 0.00 76 1012.0
20260906044259 68 295 0.0 2.0 0.00 0.00 0.00 76 1012.0
20260906043758 67 276 0.0 2.0 0.00 0.00 0.00 76 1012.1
20260906043232 68 307 0.0 1.0 0.00 0.00 0.00 76 1011.8
20260906042931 68 304 0.0 1.0 0.00 0.00 0.00 76 1011.9
20260906042139 68 288 0.0 1.0 0.00 0.00 0.00 76 1012.1
20260906041858 68 288 0.0 2.0 0.00 0.00 0.00 76 1012.1
20260906041109 68 284 0.0 2.0 0.00 0.00 0.00 76 1012.1
20260906040542 67 306 0.0 1.0 0.00 0.00 0.00 76 1012.2
20260906040017 67 301 0.0 1.0 0.00 0.00 0.00 77 1012.3
20260906035447 67 301 0.0 0.0 0.00 0.00 0.00 77 1012.2
20260906035212 67 301 0.0 0.0 0.00 0.00 0.00 78 1012.1
20260906034419 67 301 0.0 0.0 0.00 0.00 0.00 77 1012.0
20260906033854 68 301 0.0 0.0 0.00 0.00 0.00 77 1012.1
20260906033327 68 300 0.0 0.0 0.00 0.00 0.00 77 1012.2
20260906032758 68 301 0.0 0.0 0.00 0.00 0.00 76 1012.2
20260906032256 68 301 0.0 0.0 0.00 0.00 0.00 77 1012.2
20260906031729 68 301 0.0 0.0 0.00 0.00 0.00 77 1012.1
20260906031227 68 301 0.0 0.0 0.00 0.00 0.00 76 1012.1
20260906030659 68 301 0.0 0.0 0.00 0.00 0.00 76 1012.1
20260906030421 68 301 0.0 0.0 0.00 0.00 0.00 76 1012.0
20260906025632 69 301 0.0 0.0 0.00 0.00 0.00 76 1012.0
20260906025329 69 301 0.0 0.0 0.00 0.00 0.00 75 1011.9
20260906024601 69 300 0.0 1.0 0.00 0.00 0.00 75 1011.9
20260906024057 69 301 0.0 1.0 0.00 0.00 0.00 74 1012.0
20260906023557 69 301 0.0 0.0 0.00 0.00 0.00 74 1011.9
20260906023050 69 301 0.0 0.0 0.00 0.00 0.00 73 1011.9
20260906022550 69 301 0.0 0.0 0.00 0.00 0.00 73 1011.9
20260906022050 69 300 0.0 1.0 0.00 0.00 0.00 73 1011.8
20260906021535 69 300 0.0 1.0 0.00 0.00 0.00 73 1011.8
20260906021036 70 301 0.0 1.0 0.00 0.00 0.00 73 1011.8
20260906020730 70 300 0.0 1.0 0.00 0.00 0.00 73 1011.9
20260906015943 70 300 0.0 0.0 0.00 0.00 0.00 73 1011.8
20260906015417 70 300 0.0 0.0 0.00 0.00 0.00 73 1011.8
20260906015111 70 300 0.0 1.0 0.00 0.00 0.00 72 1011.7
20260906014325 70 300 0.0 1.0 0.00 0.00 0.00 73 1011.6
20260906013820 70 301 0.0 1.0 0.00 0.00 0.00 72 1011.7
20260906013317 70 302 0.0 1.0 0.00 0.00 0.00 73 1011.6
20260906012815 69 325 0.0 1.0 0.00 0.00 0.00 73 1011.6
20260906012313 69 299 0.0 0.0 0.00 0.00 0.00 74 1011.6
20260906011744 69 299 0.0 0.0 0.00 0.00 0.00 75 1011.4
20260906011244 69 299 0.0 0.0 0.00 0.00 0.00 75 1011.4
20260906010739 69 323 0.0 0.0 0.00 0.00 0.00 76 1011.4
20260906010240 69 322 0.0 0.0 0.00 0.00 0.00 77 1011.2
20260906005714 69 323 0.0 0.0 0.00 0.00 0.00 79 1011.2
20260906005146 69 323 0.0 0.0 0.00 0.00 0.00 77 1011.2
20260906004912 69 323 0.0 0.0 0.00 0.00 0.00 77 1011.2
20260906004344 69 323 0.0 0.0 0.00 0.00 0.00 77 1011.2
20260906003555 70 323 0.0 0.0 0.00 0.00 0.00 77 1011.2
20260906003042 70 323 0.0 0.0 0.00 0.00 0.00 77 1011.0
20260906003004 70 323 0.0 0.0 0.00 0.00 0.00 77 1011.0
20260906001957 71 323 0.0 0.0 0.00 0.00 0.00 78 1010.9
20260906001432 71 323 0.0 0.0 0.00 0.00 0.00 76 1010.8
20260906000912 71 323 0.0 0.0 0.00 0.00 0.00 75 1010.8
20260906000414 71 323 0.0 0.0 0.00 0.00 0.00 75 1010.7
20260905235854 71 323 0.0 0.0 0.00 0.00 0.00 74 1010.6
20260905235339 71 323 0.0 0.0 0.00 0.00 0.00 75 1010.5
20260905234836 72 323 0.0 0.0 0.00 0.00 0.00 74 1010.4
20260905234340 72 323 0.0 0.0 0.00 0.00 0.00 73 1010.5
20260905234037 72 323 0.0 0.0 0.00 0.00 0.00 72 1010.4
20260905233300 73 323 0.0 0.0 0.00 0.00 0.00 71 1010.1
20260905233025 73 323 0.0 0.0 0.00 0.00 0.00 70 1010.0
20260905232301 74 323 0.0 0.0 0.00 0.00 0.00 69 1009.9
20260905231800 74 323 0.0 0.0 0.00 0.00 0.00 67 1010.0
20260905231240 74 323 0.0 0.0 0.00 0.00 0.00 66 1010.0
20260905230729 75 323 0.0 0.0 0.00 0.00 0.00 66 1010.1
20260905230153 75 323 0.0 0.0 0.00 0.00 0.00 65 1010.1
20260905225650 76 323 0.0 0.0 0.00 0.00 0.00 64 1010.1
20260905225152 76 323 0.0 0.0 0.00 0.00 0.00 64 1010.3
20260905224645 76 323 0.0 0.0 0.00 0.00 0.00 62 1010.1
20260905224636 77 323 0.0 0.0 0.00 0.00 0.00 62 1010.1
20260905223638 77 323 0.0 0.0 0.00 0.00 0.00 63 1010.3
20260905223137 77 323 0.0 0.0 0.00 0.00 0.00 62 1010.1
20260905222637 78 323 0.0 0.0 0.00 0.00 0.00 62 1010.1
20260905222112 78 323 0.0 1.0 0.00 0.00 0.00 60 1010.0
20260905221547 78 290 0.0 3.0 0.00 0.00 0.00 58 1010.0
20260905221242 78 293 0.0 3.0 0.00 0.00 0.00 57 1009.9
20260905220514 78 277 0.0 4.0 0.00 0.00 0.00 61 1009.8
20260905220011 79 321 0.0 4.0 0.00 0.00 0.00 60 1009.8
20260905215444 79 297 0.0 4.0 0.00 0.00 0.00 59 1009.8
20260905214942 78 162 0.0 1.0 0.00 0.00 0.00 60 1009.8
20260905214422 78 14 0.0 4.0 0.00 0.00 0.00 61 1009.9
20260905213922 78 257 0.0 4.0 0.00 0.00 0.00 63 1009.8
20260905213644 78 283 0.0 2.0 0.00 0.00 0.00 64 1009.8
20260905212919 78 309 0.0 2.0 0.00 0.00 0.00 63 1009.8
20260905212422 78 299 0.0 1.0 0.00 0.00 0.00 64 1009.8
20260905211853 78 299 0.0 2.0 0.00 0.00 0.00 62 1009.8
20260905211615 78 328 0.0 1.0 0.00 0.00 0.00 62 1009.8
20260905210824 78 352 0.0 6.0 0.00 0.00 0.00 61 1009.7
20260905210322 79 352 1.0 6.0 0.00 0.00 0.00 59 1009.7
20260905205808 80 318 1.0 6.0 0.00 0.00 0.00 57 1009.7
20260905205227 80 341 1.0 6.0 0.00 0.00 0.00 54 1009.6
20260905204726 80 300 1.0 7.0 0.00 0.00 0.00 55 1009.5
20260905204158 80 278 1.0 8.0 0.00 0.00 0.00 57 1009.5
20260905203656 80 305 1.0 8.0 0.00 0.00 0.00 53 1009.5
20260905203128 80 293 1.0 4.0 0.00 0.00 0.00 54 1009.5
20260905202625 81 241 1.0 8.0 0.00 0.00 0.00 55 1009.5
20260905202126 81 261 1.0 8.0 0.00 0.00 0.00 53 1009.6
20260905201557 81 252 1.0 7.0 0.00 0.00 0.00 54 1009.6
20260905201057 81 283 1.0 7.0 0.00 0.00 0.00 53 1009.6
20260905200548 80 317 1.0 5.0 0.00 0.00 0.00 54 1009.7
20260905200057 80 317 1.0 4.0 0.00 0.00 0.00 54 1009.6
20260905195804 81 314 1.0 4.0 0.00 0.00 0.00 54 1009.7
20260905195041 82 282 1.0 4.0 0.00 0.00 0.00 52 1009.8
20260905194516 82 309 2.0 6.0 0.00 0.00 0.00 52 1009.8
20260905193947 82 308 1.0 6.0 0.00 0.00 0.00 52 1009.8
20260905193443 82 283 1.0 10.0 0.00 0.00 0.00 54 1009.9
20260905192917 81 335 2.0 10.0 0.00 0.00 0.00 53 1009.9
20260905192409 81 264 1.0 6.0 0.00 0.00 0.00 55 1009.9
20260905191906 81 344 1.0 6.0 0.00 0.00 0.00 54 1010.0
20260905191607 81 306 1.0 4.0 0.00 0.00 0.00 55 1010.1
20260905190813 81 306 1.0 4.0 0.00 0.00 0.00 58 1010.3
20260905190312 81 332 1.0 4.0 0.00 0.00 0.00 60 1010.3
20260905190009 81 359 1.0 4.0 0.00 0.00 0.00 55 1010.1
20260905185220 82 298 1.0 7.0 0.00 0.00 0.00 54 1010.3
20260905184651 82 112 1.0 7.0 0.00 0.00 0.00 55 1010.4
20260905184149 81 307 2.0 10.0 0.00 0.00 0.00 56 1010.5
20260905183645 81 275 1.0 10.0 0.00 0.00 0.00 54 1010.4
20260905183120 81 271 1.0 7.0 0.00 0.00 0.00 56 1010.4
20260905182606 81 11 2.0 7.0 0.00 0.00 0.00 54 1010.3
20260905182102 81 304 1.0 5.0 0.00 0.00 0.00 53 1010.4
20260905181537 82 288 1.0 5.0 0.00 0.00 0.00 59 1010.5
20260905180955 81 283 1.0 6.0 0.00 0.00 0.00 53 1010.5
20260905180916 82 304 1.0 6.0 0.00 0.00 0.00 53 1010.5
20260905180131 81 235 1.0 5.0 0.00 0.00 0.00 56 1010.7
20260905175336 81 295 1.0 4.0 0.00 0.00 0.00 60 1010.7
20260905174835 81 210 1.0 5.0 0.00 0.00 0.00 55 1010.6
20260905174305 81 13 1.0 5.0 0.00 0.00 0.00 60 1010.7
20260905174027 81 320 1.0 4.0 0.00 0.00 0.00 57 1010.8
20260905173300 81 308 1.0 8.0 0.00 0.00 0.00 58 1010.8
20260905172800 81 316 1.0 8.0 0.00 0.00 0.00 57 1010.8
20260905172504 81 244 1.0 6.0 0.00 0.00 0.00 58 1010.9
20260905171746 81 283 1.0 6.0 0.00 0.00 0.00 57 1010.8
20260905171219 81 302 1.0 5.0 0.00 0.00 0.00 59 1010.8
20260905170717 81 132 1.0 5.0 0.00 0.00 0.00 59 1010.8
20260905170433 81 236 0.0 3.0 0.00 0.00 0.00 59 1011.0
20260905165715 81 205 1.0 7.0 0.00 0.00 0.00 60 1010.9
20260905165151 81 259 2.0 7.0 0.00 0.00 0.00 58 1010.9
20260905164652 80 317 2.0 6.0 0.00 0.00 0.00 60 1010.9
20260905164148 80 243 1.0 5.0 0.00 0.00 0.00 58 1011.0
20260905163645 81 30 1.0 3.0 0.00 0.00 0.00 60 1011.0
20260905163126 80 131 1.0 3.0 0.00 0.00 0.00 61 1011.1
20260905162829 80 110 1.0 4.0 0.00 0.00 0.00 62 1011.3
20260905162111 80 231 1.0 4.0 0.00 0.00 0.00 61 1011.3
20260905161550 79 345 1.0 6.0 0.00 0.00 0.00 63 1011.4
20260905161053 79 294 1.0 5.0 0.00 0.00 0.00 61 1011.4
20260905160531 79 355 2.0 7.0 0.00 0.00 0.00 63 1011.3
20260905160038 79 281 2.0 7.0 0.00 0.00 0.00 63 1011.5
20260905155514 79 326 1.0 6.0 0.00 0.00 0.00 62 1011.6
20260905154959 79 249 1.0 4.0 0.00 0.00 0.00 63 1011.6
20260905154500 79 259 1.0 6.0 0.00 0.00 0.00 62 1011.6
20260905154202 79 281 1.0 6.0 0.00 0.00 0.00 63 1011.6
20260905153439 79 311 1.0 4.0 0.00 0.00 0.00 65 1011.5
20260905152923 79 218 1.0 5.0 0.00 0.00 0.00 64 1011.5
20260905152422 78 322 1.0 5.0 0.00 0.00 0.00 65 1011.4
20260905151854 78 281 1.0 6.0 0.00 0.00 0.00 68 1011.5
20260905151333 77 220 1.0 8.0 0.00 0.00 0.00 68 1011.5
20260905150810 76 7 0.0 2.0 0.00 0.00 0.00 72 1011.6
20260905150247 76 299 0.0 6.0 0.00 0.00 0.00 71 1011.6
20260905145726 76 162 0.0 2.0 0.00 0.00 0.00 71 1011.5
20260905145202 75 288 0.0 3.0 0.00 0.00 0.00 72 1011.3
20260905144638 75 300 1.0 4.0 0.00 0.00 0.00 72 1011.3
20260905144113 74 291 1.0 4.0 0.00 0.00 0.00 72 1011.3
20260905143810 74 328 0.0 3.0 0.00 0.00 0.00 73 1011.2
20260905143020 74 267 0.0 3.0 0.00 0.00 0.00 73 1011.3
20260905142458 74 316 0.0 3.0 0.00 0.00 0.00 74 1011.3
20260905141952 73 338 0.0 3.0 0.00 0.00 0.00 75 1011.4
20260905141449 73 335 0.0 3.0 0.00 0.00 0.00 76 1011.5
20260905141148 73 339 0.0 2.0 0.00 0.00 0.00 76 1011.5
20260905140356 73 319 0.0 2.0 0.00 0.00 0.00 75 1011.5
20260905135833 73 272 0.0 3.0 0.00 0.00 0.00 74 1011.4
20260905135323 73 311 0.0 3.0 0.00 0.00 0.00 76 1011.4
20260905134820 73 240 0.0 2.0 0.00 0.00 0.00 75 1011.4
20260905134321 73 314 0.0 1.0 0.00 0.00 0.00 76 1011.2
20260905133830 73 290 0.0 3.0 0.00 0.00 0.00 76 1011.3
20260905133540 73 285 0.0 3.0 0.00 0.00 0.00 74 1011.2
20260905133018 73 279 0.0 1.0 0.00 0.00 0.00 75 1011.2
20260905132224 72 259 0.0 4.0 0.00 0.00 0.00 74 1011.2
20260905131656 73 273 0.0 2.0 0.00 0.00 0.00 75 1011.0
20260905131150 73 297 0.0 1.0 0.00 0.00 0.00 75 1010.9
20260905130701 72 276 0.0 1.0 0.00 0.00 0.00 76 1011.0
20260905130200 72 278 0.0 1.0 0.00 0.00 0.00 76 1011.0
20260905125619 73 278 0.0 2.0 0.00 0.00 0.00 76 1011.2
20260905125116 72 278 0.0 2.0 0.00 0.00 0.00 76 1011.0
20260905124605 72 231 0.0 3.0 0.00 0.00 0.00 76 1011.0
20260905124105 72 253 0.0 3.0 0.00 0.00 0.00 78 1011.1
20260905123603 72 289 0.0 2.0 0.00 0.00 0.00 77 1011.1
20260905123101 72 266 0.0 1.0 0.00 0.00 0.00 77 1011.1
20260905122603 72 265 0.0 1.0 0.00 0.00 0.00 78 1011.1
20260905122051 72 263 0.0 1.0 0.00 0.00 0.00 78 1011.0
20260905121524 72 262 0.0 3.0 0.00 0.00 0.00 78 1011.0
20260905120955 72 268 0.0 2.0 0.00 0.00 0.00 78 1011.0
20260905120719 72 258 0.0 1.0 0.00 0.00 0.00 78 1011.2
20260905115926 72 258 0.0 1.0 0.00 0.00 0.00 78 1011.2
20260905115422 72 258 0.0 1.0 0.00 0.00 0.00 77 1011.2
20260905114921 72 144 0.0 1.0 0.00 0.00 0.00 77 1011.1
20260905114420 72 257 0.0 1.0 0.00 0.00 0.00 78 1011.0
20260905114143 72 311 0.0 3.0 0.00 0.00 0.00 78 1011.0
20260905113416 72 303 0.0 3.0 0.00 0.00 0.00 77 1010.8
20260905112914 72 278 0.0 1.0 0.00 0.00 0.00 78 1010.7
20260905112407 72 313 0.0 1.0 0.00 0.00 0.00 78 1010.7
20260905111841 72 245 0.0 1.0 0.00 0.00 0.00 79 1010.5
20260905111534 72 326 0.0 4.0 0.00 0.00 0.00 78 1010.4
20260905111034 72 290 0.0 4.0 0.00 0.00 0.00 78 1010.4